Time,TemperatureF,DewpointF,PressureIn,WindDirection,WindDirectionDegrees,WindSpeedMPH,WindSpeedGustMPH,Humidity,HourlyPrecipIn,Conditions,Clouds,dailyrainin,SoftwareType,DateUTC
2014-10-25 00:13:00,45.0,-99.9,-100.00,North,-999,-999.0,-999.0,-999,0.00,,,0.14,,2014-10-25 04:13:00,
2014-10-25 00:24:00,45.0,-99.9,-100.00,North,-999,-999.0,-999.0,-999,0.00,,,0.14,,2014-10-25 04:24:00,
2014-10-25 00:30:00,44.0,-99.9,-100.00,North,-999,-999.0,-999.0,-999,0.00,,,0.14,,2014-10-25 04:30:00,
2014-10-25 01:12:00,44.0,-99.9,-100.00,North,-999,-999.0,-999.0,-999,0.00,,,0.14,,2014-10-25 05:12:00,
2014-10-25 01:23:00,44.0,-99.9,-100.00,North,-999,-999.0,-999.0,-999,0.00,,,0.14,,2014-10-25 05:23:00,
2014-10-25 01:30:00,44.0,-99.9,-100.00,North,-999,-999.0,-999.0,-999,0.00,,,0.13,,2014-10-25 05:30:00,
2014-10-25 02:13:00,44.0,-99.9,-100.00,North,-999,-999.0,-999.0,-999,0.00,,,0.13,,2014-10-25 06:13:00,
2014-10-25 02:22:00,44.0,-99.9,-100.00,North,-999,-999.0,-999.0,-999,0.00,,,0.13,,2014-10-25 06:22:00,
2014-10-25 03:12:00,40.0,-99.9,-100.00,North,-999,-999.0,-999.0,-999,-99.99,,,0.13,,2014-10-25 07:12:00,
2014-10-25 03:22:00,40.0,-99.9,-100.00,North,-999,-999.0,-999.0,-999,-99.99,,,0.13,,2014-10-25 07:22:00,
2014-10-25 03:30:00,39.0,-99.9,-100.00,North,-999,-999.0,-999.0,-999,0.00,,,0.12,,2014-10-25 07:30:00,
2014-10-25 03:32:00,40.0,-99.9,-100.00,North,-999,-999.0,-999.0,-999,-99.99,,,0.13,,2014-10-25 07:32:00,
2014-10-25 03:42:00,40.0,-99.9,-100.00,North,-999,-999.0,-999.0,-999,-99.99,,,0.13,,2014-10-25 07:42:00,
2014-10-25 04:12:00,39.0,-99.9,-100.00,North,-999,-999.0,-999.0,-999,0.00,,,0.12,,2014-10-25 08:12:00,
2014-10-25 04:22:00,39.0,-99.9,-100.00,North,-999,-999.0,-999.0,-999,0.00,,,0.12,,2014-10-25 08:22:00,
2014-10-25 04:30:00,37.0,-99.9,-100.00,North,-999,-999.0,-999.0,-999,0.00,,,0.09,,2014-10-25 08:30:00,
2014-10-25 05:12:00,37.0,-99.9,-100.00,North,-999,-999.0,-999.0,-999,0.00,,,0.09,,2014-10-25 09:12:00,
2014-10-25 05:22:00,37.0,-99.9,-100.00,North,-999,-999.0,-999.0,-999,0.00,,,0.09,,2014-10-25 09:22:00,
2014-10-25 05:30:00,36.0,-99.9,-100.00,North,-999,-999.0,-999.0,-999,0.00,,,0.06,,2014-10-25 09:30:00,
2014-10-25 06:13:00,36.0,-99.9,-100.00,North,-999,-999.0,-999.0,-999,0.00,,,0.06,,2014-10-25 10:13:00,
2014-10-25 06:23:00,36.0,-99.9,-100.00,North,-999,-999.0,-999.0,-999,0.00,,,0.06,,2014-10-25 10:23:00,
2014-10-25 06:30:00,36.0,-99.9,-100.00,North,-999,-999.0,-999.0,-999,0.00,,,0.01,,2014-10-25 10:30:00,
2014-10-25 07:13:00,36.0,-99.9,-100.00,North,-999,-999.0,-999.0,-999,0.00,,,0.01,,2014-10-25 11:13:00,
2014-10-25 07:23:00,36.0,-99.9,-100.00,North,-999,-999.0,-999.0,-999,0.00,,,0.01,,2014-10-25 11:23:00,
2014-10-25 07:30:00,36.0,-99.9,-100.00,North,-999,-999.0,-999.0,-999,0.00,,,0.00,,2014-10-25 11:30:00,
2014-10-25 08:12:00,36.0,-99.9,-100.00,North,-999,-999.0,-999.0,-999,0.00,,,0.00,,2014-10-25 12:12:00,
2014-10-25 08:22:00,36.0,-99.9,-100.00,North,-999,-999.0,-999.0,-999,0.00,,,0.00,,2014-10-25 12:22:00,
2014-10-25 09:22:00,46.0,-99.9,-100.00,North,-999,-999.0,-999.0,-999,-99.99,,,0.00,,2014-10-25 13:22:00,
2014-10-25 09:32:00,46.0,-99.9,-100.00,North,-999,-999.0,-999.0,-999,-99.99,,,0.00,,2014-10-25 13:32:00,
2014-10-25 09:42:00,46.0,-99.9,-100.00,North,-999,-999.0,-999.0,-999,-99.99,,,0.00,,2014-10-25 13:42:00,
2014-10-25 10:30:00,54.0,-99.9,-100.00,North,-999,-999.0,-999.0,-999,0.00,,,0.00,,2014-10-25 14:30:00,
2014-10-25 11:12:00,54.0,-99.9,-100.00,North,-999,-999.0,-999.0,-999,0.00,,,0.00,,2014-10-25 15:12:00,
2014-10-25 11:23:00,54.0,-99.9,-100.00,North,-999,-999.0,-999.0,-999,0.00,,,0.00,,2014-10-25 15:23:00,
2014-10-25 11:30:00,55.0,-99.9,-100.00,North,-999,-999.0,-999.0,-999,0.00,,,0.00,,2014-10-25 15:30:00,
2014-10-25 12:13:00,55.0,-99.9,-100.00,North,-999,-999.0,-999.0,-999,0.00,,,0.00,,2014-10-25 16:13:00,
2014-10-25 12:23:00,55.0,-99.9,-100.00,North,-999,-999.0,-999.0,-999,0.00,,,0.00,,2014-10-25 16:23:00,
2014-10-25 12:30:00,57.0,-99.9,-100.00,North,-999,-999.0,-999.0,-999,0.00,,,0.00,,2014-10-25 16:30:00,
2014-10-25 13:13:00,57.0,-99.9,-100.00,North,-999,-999.0,-999.0,-999,0.00,,,0.00,,2014-10-25 17:13:00,
2014-10-25 13:24:00,57.0,-99.9,-100.00,North,-999,-999.0,-999.0,-999,0.00,,,0.00,,2014-10-25 17:24:00,
2014-10-25 13:30:00,59.0,-99.9,-100.00,North,-999,-999.0,-999.0,-999,0.00,,,0.00,,2014-10-25 17:30:00,
2014-10-25 14:13:00,59.0,-99.9,-100.00,North,-999,-999.0,-999.0,-999,0.00,,,0.00,,2014-10-25 18:13:00,
2014-10-25 14:22:00,59.0,-99.9,-100.00,North,-999,-999.0,-999.0,-999,0.00,,,0.00,,2014-10-25 18:22:00,
2014-10-25 15:22:00,60.0,-99.9,-100.00,North,-999,-999.0,-999.0,-999,-99.99,,,0.00,,2014-10-25 19:22:00,
2014-10-25 15:30:00,61.0,-99.9,-100.00,North,-999,-999.0,-999.0,-999,0.00,,,0.00,,2014-10-25 19:30:00,
2014-10-25 15:33:00,60.0,-99.9,-100.00,North,-999,-999.0,-999.0,-999,-99.99,,,0.00,,2014-10-25 19:33:00,
2014-10-25 15:42:00,60.0,-99.9,-100.00,North,-999,-999.0,-999.0,-999,-99.99,,,0.00,,2014-10-25 19:42:00,
2014-10-25 16:13:00,61.0,-99.9,-100.00,North,-999,-999.0,-999.0,-999,0.00,,,0.00,,2014-10-25 20:13:00,
2014-10-25 16:23:00,61.0,-99.9,-100.00,North,-999,-999.0,-999.0,-999,0.00,,,0.00,,2014-10-25 20:23:00,
2014-10-25 16:30:00,59.0,-99.9,-100.00,North,-999,-999.0,-999.0,-999,0.00,,,0.00,,2014-10-25 20:30:00,
2014-10-25 17:12:00,59.0,-99.9,-100.00,North,-999,-999.0,-999.0,-999,0.00,,,0.00,,2014-10-25 21:12:00,
2014-10-25 17:22:00,59.0,-99.9,-100.00,North,-999,-999.0,-999.0,-999,0.00,,,0.00,,2014-10-25 21:22:00,
2014-10-25 17:30:00,56.0,-99.9,-100.00,North,-999,-999.0,-999.0,-999,0.00,,,0.00,,2014-10-25 21:30:00,
2014-10-25 18:13:00,56.0,-99.9,-100.00,North,-999,-999.0,-999.0,-999,0.00,,,0.00,,2014-10-25 22:13:00,
2014-10-25 18:23:00,56.0,-99.9,-100.00,North,-999,-999.0,-999.0,-999,0.00,,,0.00,,2014-10-25 22:23:00,